Change the Weather History Date:

Saturday, October 30, 2010

  Actual Average Record
Temperature  
Mean Temperature 60 °F -  
Max Temperature 67 °F 64 °F 78 °F (2005)
Min Temperature 52 °F 46 °F 44 °F (1997)
Degree Days  
Heating Degree Days 6    
Growing Degree Days 10 (Base 50)    
Moisture  
Dew Point 54 °F    
Average Humidity 77    
Maximum Humidity 100    
Minimum Humidity 57    
Precipitation  
Precipitation 0.00 in 0.06 in - ()
Sea Level Pressure  
Sea Level Pressure 29.85 in    
Wind  
Wind Speed 7 mph ()    
Max Wind Speed 20 mph    
Max Gust Speed 26 mph    
Visibility 6.6 miles    
Events      
Averages and records for this station are not official NWS values.
T = Trace of Precipitation, MM = Missing Value Source: Averaged Metar Reports

Daily Weather History Graph

Daily Weather History Graph

Search for Another Location

Airport or City:

Trip Planner

Search our weather history database for the weather conditions in past years. The results will help you decide how hot, cold, wet, or windy it might be!

Date:

Astronomy

Oct. 30, 2010 Rise Set
Actual Time 8:14 AM CEST 6:50 PM CEST
Civil Twilight 7:47 AM CEST 7:17 PM CEST
Nautical Twilight 7:15 AM CEST 7:49 PM CEST
Astronomical Twilight 6:44 AM CEST 8:20 PM CEST
Moon 12:14 AM CEST (10/30) 2:42 PM CEST (10/30)
Length of Visible Light 11h 30m
Length of Day
10h 35m
Waning Gibbous, 51% of the Moon is Illuminated
Oct 30
Waning Gibbous
Oct 30
Last Quarter
Nov 6
New
Nov 13
First Quarter
Nov 21
Full

Hourly Weather History & Observations

Time (CEST) Temp. Dew Point Humidity Pressure Visibility Wind Dir Wind Speed Gust Speed Precip Events Conditions
12:00 AM 59.0 °F 55.4 °F 88% 29.95 in 6.2 mi ENE 5.8 mph - N/A   Partly Cloudy
12:30 AM 57.2 °F 55.4 °F 94% 29.95 in 6.2 mi Variable 1.2 mph - N/A   Partly Cloudy
1:00 AM 57.2 °F 55.4 °F 94% 29.95 in 6.2 mi NE 3.5 mph - N/A   Partly Cloudy
1:30 AM 55.4 °F 53.6 °F 94% 29.92 in 6.2 mi Variable 1.2 mph - N/A   Partly Cloudy
2:00 AM 55 °F 53 °F 90% 29.93 in 9 mi Calm Calm - -   Scattered Clouds
2:00 AM 55.4 °F 53.6 °F 94% 29.92 in 6.2 mi Variable 1.2 mph - N/A   Partly Cloudy
2:30 AM 55.4 °F 53.6 °F 94% 29.89 in 6.2 mi Variable 1.2 mph - N/A   Partly Cloudy
3:00 AM 51.8 °F 51.8 °F 100% 29.89 in 6.2 mi Calm Calm - N/A   Partly Cloudy
3:30 AM 53.6 °F 51.8 °F 94% 29.89 in 6.2 mi Variable 1.2 mph - N/A   Partly Cloudy
4:00 AM 53.6 °F 53.6 °F 100% 29.89 in 6.2 mi Calm Calm - N/A   Partly Cloudy
4:30 AM 53.6 °F 53.6 °F 100% 29.89 in 6.2 mi Variable 1.2 mph - N/A   Partly Cloudy
5:00 AM 53.6 °F 51.8 °F 94% 29.86 in 6.2 mi Variable 1.2 mph - N/A   Partly Cloudy
5:30 AM 53.6 °F 51.8 °F 94% 29.86 in 6.2 mi Variable 1.2 mph - N/A   Partly Cloudy
6:00 AM 53.6 °F 53.6 °F 100% 29.86 in 6.2 mi ENE 3.5 mph - N/A   Partly Cloudy
6:30 AM 53.6 °F 53.6 °F 100% 29.86 in 6.2 mi Variable 1.2 mph - N/A   Partly Cloudy
7:00 AM 53.6 °F 53.6 °F 100% 29.86 in 6.2 mi Calm Calm - N/A   Scattered Clouds
7:30 AM 53.6 °F 53.6 °F 100% 29.83 in 6.2 mi Calm Calm - N/A   Scattered Clouds
8:00 AM 57 °F 55 °F 92% 29.85 in 12 mi East 1.2 mph - -   Scattered Clouds
8:00 AM 57.2 °F 55.4 °F 94% 29.83 in 6.2 mi Variable 1.2 mph - N/A   Scattered Clouds
8:30 AM 62.6 °F 53.6 °F 72% 29.83 in 6.2 mi WSW 12.7 mph - N/A   Scattered Clouds
9:00 AM 66.2 °F 51.8 °F 60% 29.83 in 6.2 mi WSW 15.0 mph - N/A   Partly Cloudy
9:30 AM 66.2 °F 53.6 °F 64% 29.83 in 6.2 mi WSW 13.8 mph - N/A   Partly Cloudy
10:00 AM 66.2 °F 55.4 °F 68% 29.86 in 6.2 mi WSW 13.8 mph - N/A   Partly Cloudy
10:30 AM 66.2 °F 55.4 °F 68% 29.86 in 6.2 mi WSW 17.3 mph - N/A   Partly Cloudy
11:00 AM 66.2 °F 55.4 °F 68% 29.86 in 6.2 mi SW 16.1 mph - N/A   Partly Cloudy
11:30 AM 66.2 °F 55.4 °F 68% 29.86 in 6.2 mi WSW 17.3 mph - N/A   Partly Cloudy
12:00 PM 66.2 °F 55.4 °F 68% 29.86 in 6.2 mi WSW 15.0 mph - N/A   Partly Cloudy
12:30 PM 66.2 °F 55.4 °F 68% 29.86 in 6.2 mi WSW 16.1 mph - N/A   Partly Cloudy
1:00 PM 66.2 °F 55.4 °F 68% 29.86 in 6.2 mi WSW 15.0 mph - N/A   Partly Cloudy
1:30 PM 66.2 °F 55.4 °F 68% 29.86 in 6.2 mi WSW 16.1 mph - N/A   Partly Cloudy
2:00 PM 66 °F 54 °F 57% 29.85 in 17 mi WSW 16.1 mph - -   Scattered Clouds
2:00 PM 66.2 °F 55.4 °F 68% 29.83 in 6.2 mi WSW 17.3 mph - N/A   Partly Cloudy
2:30 PM 66.2 °F 55.4 °F 68% 29.83 in 6.2 mi WSW 18.4 mph - N/A   Partly Cloudy
3:00 PM 66.2 °F 53.6 °F 64% 29.83 in 6.2 mi WSW 18.4 mph - N/A   Partly Cloudy
3:30 PM 64.4 °F 53.6 °F 68% 29.83 in 6.2 mi WSW 15.0 mph 26.5 mph N/A   Partly Cloudy
4:00 PM 64.4 °F 53.6 °F 68% 29.83 in 6.2 mi WSW 13.8 mph - N/A   Partly Cloudy
4:30 PM 66.2 °F 53.6 °F 64% 29.80 in 6.2 mi WSW 17.3 mph - N/A   Partly Cloudy
5:00 PM 66.2 °F 53.6 °F 64% 29.83 in 6.2 mi WSW 16.1 mph - N/A   Partly Cloudy
5:30 PM 64.4 °F 53.6 °F 68% 29.83 in 6.2 mi WSW 18.4 mph - N/A   Partly Cloudy
6:00 PM 66.2 °F 53.6 °F 64% 29.83 in 6.2 mi WSW 17.3 mph - N/A   Partly Cloudy
6:30 PM 66.2 °F 53.6 °F 64% 29.83 in 6.2 mi WSW 19.6 mph - N/A   Partly Cloudy
7:00 PM 64.4 °F 51.8 °F 64% 29.80 in 6.2 mi SW 18.4 mph - N/A   Partly Cloudy
7:30 PM 64.4 °F 53.6 °F 68% 29.80 in 6.2 mi SW 17.3 mph - N/A   Partly Cloudy
8:00 PM 65 °F 53 °F 57% 29.82 in 9 mi SW 19.6 mph - -   Scattered Clouds
8:00 PM 66.2 °F 53.6 °F 64% 29.80 in 6.2 mi SW 16.1 mph - N/A   Partly Cloudy
8:30 PM 66.2 °F 53.6 °F 64% 29.80 in 6.2 mi SW 18.4 mph - N/A   Partly Cloudy
9:00 PM 66.2 °F 53.6 °F 64% 29.80 in 6.2 mi SW 18.4 mph - N/A   Scattered Clouds
9:30 PM 66.2 °F 53.6 °F 64% 29.80 in 6.2 mi SW 16.1 mph - N/A   Scattered Clouds
10:00 PM 66.2 °F 53.6 °F 64% 29.80 in 6.2 mi SW 17.3 mph - N/A   Scattered Clouds
10:30 PM 66.2 °F 53.6 °F 64% 29.80 in 6.2 mi SW 17.3 mph - N/A   Scattered Clouds
11:00 PM 66.2 °F 53.6 °F 64% 29.80 in 6.2 mi SW 16.1 mph - N/A   Scattered Clouds
11:30 PM 66.2 °F 55.4 °F 68% 29.77 in 6.2 mi SW 18.4 mph - N/A   Scattered Clouds